Home   Weather   Arica   Past weeks

Flag for Chile Past Weather in Arica, Chile — Yesterday and Last 2 Weeks

Now
63 °F

Overcast.


Feels Like: 63 °F
Forecast: 62 / 68 °F
Wind: 1 mph from East

Location: Arica Airport

Current Time: Sep 30, 2016 at 8:48:12 AM

Latest Report: Sep 30, 2016 at 8:00 AM


Visibility: N/A

Pressure: 30.01 "Hg

Humidity: 73%

Dew Point: 54 °F

Location of AricaLocation

Past Weather in Arica — Graph

°F

Arica Temperature Yesterday

Maximum temperature yesterday: 68 °F (at 2:00 PM)
Minimum temperature yesterday: 63 °F (at 2:00 AM)
Average temperature yesterday: 65 °F

High & Low Weather Summary for the Past Weeks

 TemperatureHumidityPressure
High68 °F (Sep 22, 2:00 PM)83% (Sep 16, 6:00 AM)30.09 "Hg (Sep 16, 6:00 AM)
Low54 °F (Sep 15, 7:00 AM)56% (Sep 25, 1:00 PM)29.86 "Hg (Sep 19, 5:00 PM)
Average64 °F70%29.98 "Hg
* Reported Sep 15 7:00 AM — Sep 30 7:00 AM, Arica, Weather by CustomWeather, © 2016

Note: Actual official high and low records may vary slightly from our data, if they occured in-between our weather recording intervals... More about our weather records

Advertising

Arica Weather History for the Previous 24 Hours

Scroll right to see more
 ConditionsComfort  
Time TempWeatherWind HumidityBarometerVisibility
7:00 AM
Fri, Sep 30
63 °FOvercast.2 mph73%30.04 "HgN/A
6:00 AM63 °FMild.2 mph73%30.04 "HgN/A
5:00 AM63 °FOvercast.No wind73%30.07 "HgN/A
4:00 AM63 °FOvercast.No wind73%30.04 "HgN/A
3:00 AM63 °FOvercast.6 mph73%30.04 "HgN/A
2:00 AM63 °FOvercast.7 mph77%30.04 "HgN/A
1:00 AM63 °FOvercast.5 mph77%30.07 "HgN/A
12:00 AM63 °FOvercast.5 mph77%30.04 "HgN/A
11:00 PM
Thu, Sep 29
63 °FPassing clouds.3 mph73%30.04 "HgN/A
10:00 PM63 °FPassing clouds.5 mph77%30.04 "HgN/A
9:00 PM63 °FPassing clouds.6 mph77%30.04 "HgN/A
8:00 PM63 °FClear.8 mph77%30.01 "Hg10 mi
7:00 PM64 °FSunny.12 mph68%29.95 "Hg10 mi
6:00 PM66 °FSunny.13 mph64%29.95 "Hg10 mi
5:00 PM66 °FSunny.14 mph68%29.95 "Hg10 mi
4:00 PM68 °FSunny.15 mph56%29.95 "Hg10 mi
3:00 PM68 °FSunny.13 mph60%29.98 "Hg10 mi
2:00 PM68 °FPartly sunny.10 mph64%30.01 "HgN/A
1:00 PM66 °FOvercast.12 mph64%30.04 "HgN/A
12:00 PM64 °FOvercast.10 mph68%30.04 "HgN/A
11:00 AM64 °FOvercast.7 mph68%30.04 "HgN/A
10:00 AM64 °FOvercast.2 mph68%30.04 "HgN/A
9:00 AM64 °FOvercast.2 mph68%30.04 "HgN/A
8:00 AM64 °FOvercast.No wind68%30.04 "HgN/A
Weather by CustomWeather, © 2016

See weather overviewHow to use our weather pages